カタログに戻る

ONEWEB-0545

運用中通信PO
NORAD 54647·PAYLOAD·🇬🇧 United Kingdom

打ち上げ Dec 8, 2022 から Cape Canaveral Space Force Station

Loading…

次のパス (今後24時間)

TLE

最新Source: CelesTrak SupGP

元期: Sep 14, 2026, 23:35 UTC

1 54647C 22166F   26257.98281667 -.00002964  00000+0 -71862-2 0  2577
2 54647  87.9279 226.1056 0002530  95.4977 344.4384 13.21832321    10

AllMySatでONEWEB-0545をリアルタイム追跡

Download on the App Store